Left ArrowRight Arrow

39.14045, -121.61691

Hourly Observations for June 18, 2024

Temp ( °F °C ) Dew Point ( °F °C ) Humidity (%) Winds ( mph kmh ) Pressure ( in mb ) Visibility ( mi km ) Precip ( " mm )
12:53 am 00:53 Clear 65 18.3 39 3.9 38 38 VRB 3 6 29.78 1008 10 16 0.00 0.00
1:53 am 01:53 Clear 68 20 36 2.2 31 31 NNW 9 15 29.77 1008 10 16 0.00 0.00
2:53 am 02:53 Clear 66 18.9 37 2.8 34 34 N 10 17 29.76 1008 10 16 0.00 0.00
3:53 am 03:53 Clear 64 17.8 37 2.8 37 37 N 10 17 29.76 1008 10 16 0.00 0.00
4:53 am 04:53 Clear 63 17.2 36 2.2 36 36 NNW 8 13 29.77 1008 10 16 0.00 0.00
5:53 am 05:53 Sunny 64 17.8 36 2.2 35 35 N 8 13 29.77 1008 10 16 0.00 0.00
6:53 am 06:53 Sunny 64 17.8 37 2.8 37 37 N 10 17 29.79 1009 10 16 0.00 0.00
7:53 am 07:53 Sunny 68 20 38 3.3 33 33 N 12 19 29.80 1009 10 16 0.00 0.00
8:53 am 08:53 Sunny 73 22.8 40 4.4 30 30 N 8 13 29.81 1010 10 16 0.00 0.00
9:53 am 09:53 Sunny 77 25 40 4.4 26 26 NNW 8 13 29.81 1010 10 16 0.00 0.00
10:53 am 10:53 Sunny 80 26.7 40 4.4 24 24 NW 6 9 29.81 1010 10 16 0.00 0.00
11:53 am 11:53 Sunny 84 28.9 41 5 22 22 VRB 5 7 29.80 1009 10 16 0.00 0.00
12:53 pm 12:53 Sunny 85 29.4 40 4.4 20 20 VRB 3 6 29.80 1009 10 16 0.00 0.00
1:53 pm 13:53 Sunny 88 31.1 40 4.4 19 19 WSW 6 9 29.78 1009 10 16 0.00 0.00
2:53 pm 14:53 Sunny 89 31.7 34 1.1 14 14 VRB 7 11 29.78 1008 10 16 0.00 0.00
3:53 pm 15:53 Sunny 88 31.1 31 -0.6 13 13 SSW 8 13 29.77 1008 10 16 0.00 0.00
4:53 pm 16:53 Sunny 89 31.7 31 -0.6 13 13 SSW 3 6 29.76 1008 10 16 0.00 0.00
5:53 pm 17:53 Sunny 89 31.7 28 -2.2 11 11 VRB 3 6 29.75 1007 10 16 0.00 0.00
6:53 pm 18:53 Sunny 86 30 28 -2.2 12 12 SSE 5 7 29.75 1007 10 16 0.00 0.00
7:53 pm 19:53 Sunny 81 27.2 33 0.6 18 18 SW 3 6 29.75 1008 10 16 0.00 0.00
8:53 pm 20:53 Clear 74 23.3 44 6.7 34 34 S 3 6 29.75 1008 10 16 0.00 0.00
9:53 pm 21:53 Clear 74 23.3 39 3.9 28 28 Calm 29.76 1008 10 16 0.00 0.00
10:53 pm 22:53 Clear 68 20 50 10 53 53 E 5 7 29.78 1008 10 16 0.00 0.00
11:53 pm 23:53 undefined 65 18.3 47 8.3 52 52 E 7 11 29.78 1009 10 16 0.00 0.00

Powered by Vaisala Xweather